Voltar ao catálogo

GLOBALSTAR M057

AtivoComunicaçõesLEO
NORAD 25943·PAYLOAD·🇺🇸 United States

Lançado Oct 18, 1999 de Baikonur Cosmodrome

Loading…

Próximas Passagens (próximas 24 horas)

TLE

AtualizadoSource: Space-Track

Época: Sep 14, 2026, 15:47 UTC

1 25943U 99058A   26257.65766489 -.00000046  00000-0  42739-3 0  9996
2 25943  51.9972 138.3947 0001850 233.8221 126.2457 12.24838661222620

Acompanhe GLOBALSTAR M057 em tempo real com AllMySat

Download on the App Store